Regional Weather Roundup
Issued by NWS

Home | Current Version | Previous Version | Text Only | Print | Product List | Glossary Off
Versions: 1 2 3 4 5 6 7 8 9 10 11 12 13 14 15 16 17 18 19 20 21 22 23 24 25 26 27 28 29 30 31 32 33 34 35 36 37 38 39 40 41 42 43 44 45 46 47 48 49 50

000
ASUS45 KPSR 060510
RWRAZ

ARIZONA HOURLY REGIONAL WEATHER ROUNDUP
NATIONAL WEATHER SERVICE PHOENIX AZ
1000 PM MST FRI FEB 05 2016

NOTE: FAIR INDICATES FEW OR NO CLOUDS BELOW 12,000 FEET WITH NO
SIGNIFICANT WEATHER AND/OR OBSTRUCTIONS TO VISIBILITY.

AZZ001>003-036-060600-
NORTHWEST ARIZONA

CITY           SKY/WX    TMP DP  RH WIND       PRES   REMARKS
BULLHEAD CITY  CLEAR     57  25  28 N21       30.40F
KINGMAN        CLEAR     38  32  79 NE6       30.44R WCI  33
$$

AZZ004>008-015-016-018-060600-
NORTH CENTRAL ARIZONA

CITY           SKY/WX    TMP DP  RH WIND       PRES   REMARKS
GRAND CANYON   PTCLDY    17  12  80 E3        30.47F
WILLIAMS       CLEAR     23   5  46 SE6       30.49S WCI  16
PRESCOTT       CLEAR     29  16  58 CALM      30.43R
FLAGSTAFF      PTCLDY    25  12  58 E8        30.45R WCI  16
PAYSON         CLEAR     36  12  38 CALM      30.43R
PAGE           CLEAR     32  22  66 CALM      30.51S
$$

AZZ009>014-017-060600-
NORTHEAST ARIZONA

CITY           SKY/WX    TMP DP  RH WIND       PRES   REMARKS
WINSLOW        CLEAR     23  15  71 SW8       30.50S WCI  14
SAINT JOHNS    CLEAR     24  16  71 S5        30.46S WCI  18
WINDOW ROCK    CLEAR     17   0  47 W5        30.46S WCI  10
SHOW LOW       LGT RAIN  23  12  63 CALM      30.48S
$$

AZZ023-060600-
GREATER PHOENIX AREA

CITY           SKY/WX    TMP DP  RH WIND       PRES   REMARKS
PHOENIX        CLEAR     60  13  15 VRB5      30.33R
BUCKEYE        CLEAR     54  14  20 N7        30.35R
LUKE AFB       CLEAR     57  17  20 NE21      30.33R
DEER VALLEY    CLEAR     51  15  23 N7        30.34R
SCOTTSDALE     CLEAR     57  10  15 NE10      30.35R
MESA-GATEWAY   CLEAR     54  16  22 NE3       30.33
$$

AZZ027-028-060600-
SOUTHWEST MARICOPA COUNTY AND PINAL COUNTY

CITY           SKY/WX    TMP DP  RH WIND       PRES   REMARKS
CASA GRANDE    CLEAR     52  16  24 N7        30.32R
GILA BEND      FAIR      52  22  32 E5        30.31R
$$

AZZ503-504-507>509-060600-
SOUTHEAST ARIZONA

CITY           SKY/WX    TMP DP  RH WIND       PRES   REMARKS
TUCSON         CLEAR     48  17  29 W3        30.33R
DAVIS-MONTHAN  CLEAR     45  18  34 S5        30.31R
NOGALES        CLEAR     44   8  23 CALM      30.33R
SIERRA VISTA   CLEAR     38  11  33 S10       30.36R WCI  31
DOUGLAS        CLEAR     38  10  31 E8        30.37R WCI  32
SAFFORD        CLEAR     38  13  35 E5        30.36R WCI  34
$$

AZZ020-021-025-026-031-060600-
SOUTHWEST ARIZONA

CITY           SKY/WX    TMP DP  RH WIND       PRES   REMARKS
YUMA           CLEAR     58  21  24 N7        30.33R
$$

CAZ031-033-041-043-047-048-061-060600-
SOUTHERN CALIFORNIA

CITY           SKY/WX    TMP DP  RH WIND       PRES   REMARKS
DOWNTOWN L.A.  CLEAR     61  34  36 CALM      30.27R
L.A. AIRPORT   CLEAR     66  21  18 N9        30.27S
SAN DIEGO      CLEAR     61  41  47 CALM      30.27R
BURBANK        CLEAR     60  22  23 CALM      30.28S
ONTARIO        CLEAR     60  18  19 N5        30.29R
RIVERSIDE      CLEAR     63  18  17 NE5       30.32R
PALM SPRINGS   CLEAR     60  27  28 W6        30.38S
EL CENTRO NAS  CLEAR     50  20  30 W7        30.36S
IMPERIAL       CLEAR     51  28  41 W5        30.34S
BLYTHE         CLEAR     55  23  28 N8        30.36R
NEEDLES        CLEAR     58  23  26 N12       30.40R
$$

NVZ020-UTZ003-060600-
SOUTHERN NEVADA-UTAH

CITY           SKY/WX    TMP DP  RH WIND       PRES   REMARKS
LAS VEGAS      CLEAR     47  26  44 W6        30.43R
SALT LAKE CITY PTCLDY    28  22  78 SE7       30.54S WCI  21
$$

NMZ009-TXZ055-060600-
NEW MEXICO-WEST TEXAS

CITY           SKY/WX    TMP DP  RH WIND       PRES   REMARKS
ALBUQUERQUE    CLEAR     32  13  45 NW8       30.46R WCI  25
EL PASO        CLEAR     37   2  22 N8        30.41R WCI  31
$$


........................KEY........................
SKY/WX - SKY CONDITION/WEATHER
TMP    - TEMPERATURE IN FAHRENHEIT
DP     - DEW POINT IN FAHRENHEIT
RH     - RELATIVE HUMIDITY IN PERCENT
WIND   - DIRECTION AND SPEED IN MILES PER HOUR (MPH)
VRB    - VARIABLE WIND DIRECTION
PRES   - MEAN SEA LEVEL PRESSURE IN INCHES OF MERCURY
         F - FALLING PRESSURE   R - RISING PRESSURE
         S - STEADY PRESSURE
VSB    - VISIBILITY IN MILES
HX     - HEAT INDEX IN FAHRENHEIT
WCI    - WIND CHILL INDEX IN FAHRENHEIT
TC     - TEMPERATURE IN CELSIUS WHICH IS ALSO KNOWN AS
         TEMPERATURE IN CENTIGRADE
AFB    - AIR FORCE BASE
         LUKE AFB IS LUKE AIR FORCE BASE
         DAVIS-MONTHAN IS DAVIS-MONTHAN AIR FORCE BASE
NAS    - NAVAL AIR STATION
         EL CENTRO NAS IS EL CENTRO NAVAL AIR STATION
N/A    - NOT AVAILABLE




USA.gov is the U.S. government's official web portal to all federal, state and local government web resources and services.